When you browse on this site, cookies collect data to enhance your experience and personalize the content and advertising you see.
Visit our Privacy Policy to learn more. By continuing to use the site, you agree to this use of cookies and data.
  • In Schweiz
  • Länderverzeichnis
  • Für 7 Tage
  • Wassertemperatur
  • Satellitenkarten
  • Wetterkarte
  • Widgets
  • user-avatar
    Anmelden

    Stündliche Wetter Plesets'ke

    Heute, 17 Juli, Mittwoch

    Zeit Temperatur Niederschläge Wind Luftdruck Luftfeuchtigkeit
    00:00 +15°C° 0 mm 2 m/S 740 mmHg 79%
    01:00 +15°C° 0 mm 2 m/S 740 mmHg 81%
    02:00 +15°C° 0 mm 2 m/S 740 mmHg 80%
    03:00 +14°C° 0.1 mm 3 m/S 740 mmHg 84%
    04:00 +13°C° 0.1 mm 4 m/S 740 mmHg 88%
    05:00 +13°C° 0.1 mm 4 m/S 740 mmHg 93%
    06:00 +14°C° 0.3 mm 4 m/S 740 mmHg 88%
    07:00 +15°C° 0.3 mm 4 m/S 740 mmHg 83%
    08:00 +17°C° 0.3 mm 4 m/S 740 mmHg 78%
    09:00 +18°C° 0 mm 4 m/S 740 mmHg 72%
    10:00 +19°C° 0 mm 3 m/S 740 mmHg 66%
    11:00 +20°C° 0 mm 3 m/S 740 mmHg 61%
    12:00 +20°C° 0.1 mm 4 m/S 740 mmHg 60%
    13:00 +21°C° 0.1 mm 4 m/S 739 mmHg 59%
    14:00 +22°C° 0.1 mm 4 m/S 739 mmHg 59%
    15:00 +21°C° 0.2 mm 4 m/S 739 mmHg 62%
    16:00 +21°C° 0.2 mm 4 m/S 739 mmHg 65%
    17:00 +20°C° 0.2 mm 4 m/S 739 mmHg 69%
    18:00 +19°C° 0.7 mm 3 m/S 739 mmHg 75%
    19:00 +17°C° 0.7 mm 3 m/S 739 mmHg 81%
    20:00 +16°C° 0.7 mm 3 m/S 739 mmHg 87%
    21:00 +14°C° 0 mm 3 m/S 739 mmHg 89%
    22:00 +13°C° 0 mm 3 m/S 739 mmHg 91%
    23:00 +13°C° 0 mm 2 m/S 739 mmHg 93%

    Morgen, 18 Juli, Donnerstag

    Zeit Temperatur Niederschläge Wind Luftdruck Luftfeuchtigkeit
    00:00 +13°C° 0 mm 2 m/S 739 mmHg 93%
    01:00 +12°C° 0 mm 3 m/S 739 mmHg 94%
    02:00 +11°C° 0 mm 3 m/S 739 mmHg 95%
    03:00 +11°C° 0 mm 3 m/S 739 mmHg 95%
    04:00 +11°C° 0 mm 3 m/S 739 mmHg 96%
    05:00 +11°C° 0 mm 3 m/S 739 mmHg 96%
    06:00 +12°C° 0 mm 3 m/S 740 mmHg 92%
    07:00 +14°C° 0 mm 3 m/S 740 mmHg 87%
    08:00 +16°C° 0 mm 3 m/S 740 mmHg 82%
    09:00 +18°C° 0.1 mm 4 m/S 740 mmHg 76%
    10:00 +19°C° 0.1 mm 4 m/S 741 mmHg 70%
    11:00 +20°C° 0.1 mm 5 m/S 741 mmHg 64%
    12:00 +21°C° 0.1 mm 5 m/S 741 mmHg 63%
    13:00 +21°C° 0.1 mm 5 m/S 741 mmHg 61%
    14:00 +22°C° 0.1 mm 5 m/S 741 mmHg 60%
    15:00 +22°C° 0.1 mm 5 m/S 741 mmHg 62%
    16:00 +21°C° 0.1 mm 5 m/S 741 mmHg 64%
    17:00 +21°C° 0.1 mm 5 m/S 741 mmHg 66%
    18:00 +19°C° 0 mm 4 m/S 742 mmHg 73%
    19:00 +18°C° 0 mm 4 m/S 742 mmHg 80%
    20:00 +16°C° 0 mm 3 m/S 742 mmHg 88%
    21:00 +16°C° 0 mm 3 m/S 742 mmHg 89%
    22:00 +14°C° 0 mm 3 m/S 743 mmHg 91%
    23:00 +14°C° 0 mm 3 m/S 743 mmHg 93%

    übermorgen, 19 Juli, Freitag

    Zeit Temperatur Niederschläge Wind Luftdruck Luftfeuchtigkeit
    00:00 +14°C° 0 mm 3 m/S 743 mmHg 94%
    01:00 +13°C° 0 mm 3 m/S 743 mmHg 94%
    02:00 +13°C° 0 mm 3 m/S 743 mmHg 94%
    03:00 +13°C° 0 mm 3 m/S 743 mmHg 94%
    04:00 +13°C° 0 mm 3 m/S 744 mmHg 94%
    05:00 +13°C° 0 mm 3 m/S 744 mmHg 94%
    06:00 +14°C° 0 mm 3 m/S 744 mmHg 88%
    07:00 +17°C° 0 mm 4 m/S 745 mmHg 82%
    08:00 +19°C° 0 mm 4 m/S 745 mmHg 76%
    09:00 +20°C° 0 mm 4 m/S 745 mmHg 70%
    10:00 +22°C° 0 mm 4 m/S 745 mmHg 64%
    11:00 +23°C° 0 mm 4 m/S 745 mmHg 58%
    12:00 +25°C° 0.1 mm 4 m/S 745 mmHg 56%
    13:00 +25°C° 0.1 mm 3 m/S 745 mmHg 54%
    14:00 +26°C° 0.1 mm 3 m/S 745 mmHg 53%
    15:00 +25°C° 0.4 mm 3 m/S 745 mmHg 57%
    16:00 +25°C° 0.4 mm 3 m/S 745 mmHg 61%
    17:00 +24°C° 0.4 mm 3 m/S 745 mmHg 65%
    18:00 +23°C° 0.1 mm 2 m/S 745 mmHg 70%
    19:00 +20°C° 0.1 mm 2 m/S 745 mmHg 74%
    20:00 +19°C° 0.1 mm 1 m/S 745 mmHg 79%
    21:00 +19°C° 0 mm 1 m/S 746 mmHg 81%
    22:00 +18°C° 0 mm 1 m/S 746 mmHg 82%
    23:00 +17°C° 0 mm 2 m/S 746 mmHg 84%

    20 Juli, Samstag

    Zeit Temperatur Niederschläge Wind Luftdruck Luftfeuchtigkeit
    00:00 +16°C° 0 mm 2 m/S 746 mmHg 86%
    01:00 +16°C° 0 mm 2 m/S 746 mmHg 87%
    02:00 +16°C° 0 mm 2 m/S 746 mmHg 89%
    03:00 +15°C° 0 mm 2 m/S 746 mmHg 89%
    04:00 +15°C° 0 mm 1 m/S 746 mmHg 89%
    05:00 +15°C° 0 mm 1 m/S 746 mmHg 89%
    06:00 +18°C° 0 mm 1 m/S 746 mmHg 83%
    07:00 +20°C° 0 mm 1 m/S 747 mmHg 77%
    08:00 +22°C° 0 mm 1 m/S 747 mmHg 71%
    09:00 +23°C° 0 mm 1 m/S 747 mmHg 65%
    10:00 +25°C° 0 mm 1 m/S 747 mmHg 59%
    11:00 +26°C° 0 mm 1 m/S 747 mmHg 52%
    12:00 +27°C° 0 mm 1 m/S 747 mmHg 52%
    13:00 +27°C° 0 mm 1 m/S 747 mmHg 51%
    14:00 +27°C° 0 mm 1 m/S 747 mmHg 50%
    15:00 +27°C° 0 mm 1 m/S 747 mmHg 52%
    16:00 +27°C° 0 mm 1 m/S 747 mmHg 54%
    17:00 +27°C° 0 mm 1 m/S 747 mmHg 56%
    18:00 +25°C° 0 mm 1 m/S 747 mmHg 61%
    19:00 +23°C° 0 mm 1 m/S 747 mmHg 66%
    20:00 +22°C° 0 mm 1 m/S 747 mmHg 71%
    21:00 +21°C° 0.1 mm 1 m/S 747 mmHg 73%
    22:00 +20°C° 0.1 mm 1 m/S 747 mmHg 75%
    23:00 +18°C° 0.1 mm 0 m/S 748 mmHg 77%

    21 Juli, Sonntag

    Zeit Temperatur Niederschläge Wind Luftdruck Luftfeuchtigkeit
    00:00 +17°C° 0.2 mm 0 m/S 747 mmHg 79%
    01:00 +17°C° 0.2 mm 0 m/S 747 mmHg 81%
    02:00 +16°C° 0.2 mm 0 m/S 747 mmHg 82%
    03:00 +16°C° 0 mm 0 m/S 747 mmHg 82%
    04:00 +18°C° 0 mm 1 m/S 747 mmHg 82%
    05:00 +18°C° 0 mm 1 m/S 747 mmHg 82%
    06:00 +20°C° 0 mm 1 m/S 747 mmHg 77%
    07:00 +22°C° 0 mm 1 m/S 747 mmHg 72%
    08:00 +24°C° 0 mm 2 m/S 748 mmHg 67%
    09:00 +25°C° 0 mm 2 m/S 748 mmHg 62%
    10:00 +26°C° 0 mm 1 m/S 748 mmHg 57%
    11:00 +27°C° 0 mm 1 m/S 748 mmHg 51%
    12:00 +28°C° 0 mm 1 m/S 748 mmHg 49%
    13:00 +28°C° 0 mm 1 m/S 748 mmHg 46%
    14:00 +29°C° 0 mm 1 m/S 747 mmHg 43%
    15:00 +29°C° 0 mm 1 m/S 747 mmHg 45%
    16:00 +28°C° 0 mm 1 m/S 747 mmHg 46%
    17:00 +28°C° 0 mm 1 m/S 747 mmHg 47%
    18:00 +26°C° 0 mm 1 m/S 747 mmHg 52%
    19:00 +24°C° 0 mm 1 m/S 747 mmHg 57%
    20:00 +22°C° 0 mm 1 m/S 747 mmHg 62%
    21:00 +22°C° 0 mm 1 m/S 747 mmHg 64%
    22:00 +21°C° 0 mm 1 m/S 747 mmHg 66%
    23:00 +21°C° 0 mm 1 m/S 747 mmHg 67%

    22 Juli, Montag

    Zeit Temperatur Niederschläge Wind Luftdruck Luftfeuchtigkeit
    00:00 +20°C° 0 mm 1 m/S 747 mmHg 69%
    01:00 +20°C° 0 mm 1 m/S 747 mmHg 70%
    02:00 +20°C° 0 mm 1 m/S 747 mmHg 72%
    03:00 +20°C° 0 mm 1 m/S 747 mmHg 72%
    04:00 +20°C° 0 mm 1 m/S 746 mmHg 72%
    05:00 +18°C° 0 mm 0 m/S 746 mmHg 73%
    06:00 +19°C° 0 mm 0 m/S 746 mmHg 74%
    07:00 +19°C° 0 mm 0 m/S 746 mmHg 75%
    08:00 +19°C° 0 mm 0 m/S 746 mmHg 76%
    09:00 +21°C° 0.1 mm 1 m/S 746 mmHg 75%
    10:00 +22°C° 0.1 mm 1 m/S 746 mmHg 74%
    11:00 +23°C° 0.1 mm 2 m/S 746 mmHg 72%
    12:00 +24°C° 0.1 mm 2 m/S 746 mmHg 69%
    13:00 +25°C° 0.1 mm 2 m/S 746 mmHg 65%
    14:00 +26°C° 0.1 mm 3 m/S 746 mmHg 62%
    15:00 +26°C° 0.5 mm 2 m/S 746 mmHg 64%
    16:00 +26°C° 0.5 mm 2 m/S 745 mmHg 65%
    17:00 +26°C° 0.5 mm 2 m/S 745 mmHg 67%
    18:00 +25°C° 0 mm 2 m/S 745 mmHg 72%
    19:00 +23°C° 0 mm 2 m/S 745 mmHg 77%
    20:00 +21°C° 0 mm 3 m/S 745 mmHg 82%
    21:00 +20°C° 0.6 mm 2 m/S 745 mmHg 85%
    22:00 +20°C° 0.6 mm 2 m/S 745 mmHg 87%
    23:00 +19°C° 0.6 mm 2 m/S 744 mmHg 89%
    Mehr zeigen